Weather History for KFOK - October, 2013

Change the Weather History Date:

Thursday, October 10, 2013

  Actual Average Record
Temperature  
Mean Temperature 60 °F -  
Max Temperature 64 °F 63 °F 82 °F (2011)
Min Temperature 55 °F 42 °F 32 °F (2000)
Degree Days  
Heating Degree Days 6    
Growing Degree Days 10 (Base 50)    
Moisture  
Dew Point 54 °F    
Average Humidity 80    
Maximum Humidity 84    
Minimum Humidity 75    
Precipitation  
Precipitation 0.00 in - - ()
Sea Level Pressure  
Sea Level Pressure 30.20 in    
Wind  
Wind Speed 13 mph (NE)    
Max Wind Speed 17 mph    
Max Gust Speed 28 mph    
Visibility 10 miles    
Events Rain    
Averages and records for this station are not official NWS values.
T = Trace of Precipitation, MM = Missing Value Source: NWS Daily Summary

Daily Weather History Graph

Daily Weather History Graph

Search for Another Location

Airport or City:

Trip Planner

Search our weather history database for the weather conditions in past years. The results will help you decide how hot, cold, wet, or windy it might be!

Date:

Astronomy

Oct. 10, 2013 Rise Set
Actual Time 6:56 AM EDT 6:17 PM EDT
Civil Twilight 6:29 AM EDT 6:44 PM EDT
Nautical Twilight 5:57 AM EDT 7:16 PM EDT
Astronomical Twilight 5:25 AM EDT 7:48 PM EDT
Moon 12:47 PM EDT (10/10) 10:50 PM EDT (10/10)
Length of Visible Light 12h 15m
Length of Day
11h 20m
Waxing Crescent, 35% of the Moon is Illuminated
Oct 10
Waxing Crescent
Oct 11
First Quarter
Oct 18
Full
Oct 26
Last Quarter
Nov 3
New

Hourly Weather History & Observations

Time (EDT) Temp. Dew Point Humidity Pressure Visibility Wind Dir Wind Speed Gust Speed Precip Events Conditions
12:53 AM 55.9 °F 48.9 °F 77% 30.29 in 10.0 mi NE 13.8 mph 19.6 mph N/A   Partly Cloudy
1:53 AM 55.9 °F 48.9 °F 77% 30.29 in 10.0 mi NE 10.4 mph - N/A   Clear
2:53 AM 55.9 °F 48.9 °F 77% 30.27 in 10.0 mi NE 13.8 mph 19.6 mph N/A   Clear
3:53 AM 55.9 °F 48.9 °F 77% 30.26 in 10.0 mi NE 13.8 mph - N/A   Mostly Cloudy
4:53 AM 55.9 °F 48.9 °F 77% 30.26 in 10.0 mi NE 13.8 mph 20.7 mph N/A   Mostly Cloudy
5:05 AM 55.4 °F 50.0 °F 82% 30.26 in 10.0 mi NE 13.8 mph 20.7 mph N/A   Scattered Clouds
5:41 AM 55.4 °F 50.0 °F 82% 30.26 in 10.0 mi ENE 12.7 mph 20.7 mph N/A   Mostly Cloudy
5:53 AM 57.0 °F 51.1 °F 81% 30.26 in 10.0 mi NE 10.4 mph - N/A   Overcast
6:53 AM 57.0 °F 51.1 °F 81% 30.25 in 10.0 mi NE 11.5 mph - N/A   Overcast
7:53 AM 57.9 °F 52.0 °F 81% 30.25 in 10.0 mi NE 13.8 mph - N/A   Overcast
8:53 AM 59.0 °F 53.1 °F 81% 30.25 in 10.0 mi NE 12.7 mph 19.6 mph N/A   Overcast
9:53 AM 59.0 °F 54.0 °F 83% 30.24 in 10.0 mi NE 16.1 mph 21.9 mph N/A   Overcast
10:53 AM 60.1 °F 55.0 °F 83% 30.23 in 10.0 mi NE 12.7 mph - 0.00 in   Overcast
11:32 AM 60.8 °F 55.4 °F 82% 30.22 in 10.0 mi NE 12.7 mph 19.6 mph 0.00 in   Overcast
11:51 AM 60.8 °F 55.4 °F 82% 30.21 in 10.0 mi NE 11.5 mph - 0.00 in Rain Light Rain
11:53 AM 62.1 °F 55.9 °F 80% 30.21 in 10.0 mi NE 13.8 mph - 0.00 in   Overcast
12:53 PM 62.1 °F 57.0 °F 84% 30.20 in 10.0 mi NE 10.4 mph - 0.00 in Rain Light Rain
1:32 PM 62.6 °F 57.2 °F 82% 30.18 in 10.0 mi NE 15.0 mph 19.6 mph 0.00 in Rain Light Rain
1:53 PM 63.0 °F 57.0 °F 81% 30.18 in 10.0 mi ENE 15.0 mph 23.0 mph 0.00 in Rain Light Rain
2:53 PM 64.0 °F 57.0 °F 78% 30.16 in 10.0 mi NE 13.8 mph 20.7 mph 0.00 in   Overcast
3:53 PM 64.0 °F 57.0 °F 78% 30.14 in 10.0 mi NE 17.3 mph 23.0 mph N/A   Overcast
4:53 PM 64.0 °F 55.9 °F 75% 30.13 in 10.0 mi NE 17.3 mph 27.6 mph N/A   Overcast
5:53 PM 63.0 °F 55.9 °F 78% 30.14 in 10.0 mi NE 12.7 mph 19.6 mph N/A   Scattered Clouds
6:53 PM 63.0 °F 55.9 °F 78% 30.14 in 10.0 mi NE 11.5 mph 17.3 mph N/A   Overcast
7:40 PM 62.6 °F 55.4 °F 77% 30.14 in 10.0 mi NE 12.7 mph 19.6 mph N/A   Overcast
7:53 PM 62.1 °F 55.9 °F 80% 30.14 in 10.0 mi NE 12.7 mph 18.4 mph N/A   Overcast
8:53 PM 62.1 °F 55.9 °F 80% 30.13 in 10.0 mi NE 13.8 mph 24.2 mph N/A   Overcast
9:53 PM 61.0 °F 55.0 °F 81% 30.12 in 10.0 mi NE 13.8 mph - N/A   Mostly Cloudy
10:01 PM 60.8 °F 55.4 °F 82% 30.12 in 10.0 mi NE 15.0 mph 25.3 mph N/A   Scattered Clouds
10:53 PM 61.0 °F 55.0 °F 81% 30.12 in 10.0 mi NE 13.8 mph 23.0 mph N/A   Partly Cloudy
11:49 PM 60.8 °F 55.4 °F 82% 30.10 in 10.0 mi NE 15.0 mph 21.9 mph N/A   Overcast
11:53 PM 60.1 °F 55.0 °F 83% 30.10 in 10.0 mi NE 15.0 mph 21.9 mph N/A   Overcast